Location: Piotrkow Trybunalski
(51.4000°N, 19.6830°E)
Time: 11:35:06
(UTC+02:00)

A-11 Canister half - Pass Details

Date: 28 January 2023
Orbit: 1526 x 1682 km, 47.3° (Epoch: 26 March)

Event Time Altitude Azimuth Distance (km) Brightness Sun altitude
Rises 05:59:59 0° 199° (SSW) 4,663 11.5 -13.3°
Reaches altitude 10° 06:03:37 10° 188° (S) 3,686 11.1 -12.7°
Maximum altitude 06:10:52 26° 136° (SE) 2,645 11.0 -11.6°
Drops below altitude 10° 06:18:12 10° 84° (E) 3,751 12.3 -10.5°
Sets 06:21:54 0° 73° (ENE) 4,760 12.6 -10.0°
